星链-34253 (STARLINK-34253)

导读 | 豆包AI

STARLINK-34253是美国SpaceX公司星链(Starlink)星座的第二代卫星,于2025年6月28日发射升空,加入全球低轨卫星互联网组网。作为规模化部署的量产卫星,它采用平板设计与氪霍尔推进技术,运行于约550公里低轨,搭载Ku/Ka波段相控阵载荷,依托星链激光链路网络,可为全球用户提供低时延高速宽带服务,助力星链覆盖与组网规模持续拓展。

基本信息
目录编号:
64685
目录名称:
STARLINK-34253
国际标识:
2025-139X
轨道中心:
EARTH
卫星名称:
星链-34253
卫星全名:
星链-34253 (STARLINK-34253)
卫星状态:
在轨 (已飞行305 天)
发射日期:
2025-06-28 UTC
国别 :
美国 (US)
星等 :
--
轨道信息
数据来源 国际轨道数据
星历时间: 2026-04-29T14:00:03+0800
10小时前
查看轨道信息
半长轴: 6854.261km
偏心率: 0.0001542
轨道倾角: 53.158°
近地点辐角 93.193°
升交点赤经 252.333°
平近点角 245.094°
近地点: 475.067km
远地点: 477.181km
周期: 94.124分钟
每日圈数: 15.298958
详细信息
固有亮度:
5
最大亮度:
2.5
卫星平台:
Starlink V1.0
覆盖范围:
全球
运营商:
太空探索技术公司
运营商所在国:
美国
制造商(研发单位):
太空探索技术公司
制造商所在国:
美国
使用方式:
暂无
卫星简介
Starlink 计划是 SpaceX 推出的全球卫星互联网项目,通过发射低轨道卫星,为全球尤其是偏远地区提供高速、低延迟的互联网服务。自 2019 年起,Starlink 已部署数千颗卫星,旨在缩小全球数字鸿沟,推动互联网普及。该项目还为军事、航空等行业提供通信支持,带来广泛经济效益。
2D轨道图
3D轨道图
轨道高度分析图
轨道倾角分析图
轨道综合分析图
查看轨道综合分析图